Location: Newark
(47.3150°N, 5.1150°E)
Time: 07:02:58
(UTC+00:00)

AO-7 - Pass Details

Date: 24 December 2019
Orbit: 1440 x 1458 km, 101.8° (Epoch: 27 January)

Event Time Altitude Azimuth Distance (km) Brightness Sun altitude
Rises 03:01:18 0° 21° (NNE) 4,568 ? -43.4°
Reaches altitude 10° 03:04:13 10° 26° (NNE) 3,588 ? -42.9°
Maximum altitude 03:12:22 53° 102° (ESE) 1,737 ? -41.5°
Enters shadow 03:13:32 50° 128° (SE) 1,793 ? -41.4°
